Simultaneous Nadir Overpasses (SNOs) Predictions

Prediction of SNOs between NOAA-20 and TERRA Satellite Orbit:

Table of predicted SNOs for the next 14.0 days since TLE Epoch: 10/26/2024
Index Date (NOAA-20) Time (NOAA-20) Lat,Lon (NOAA-20) SZA (NOAA-20 ) Date (TERRA) Time (TERRA) Lat,Lon (TERRA) SZA (TERRA ) Distance(km) Time Diff (sec)
1 10/27/2024 05:35:11 73.54, 86.03 86.50 10/27/2024 05:36:17 73.40, 88.70 86.28 86.10 66
2 10/27/2024 06:25:39 -72.76,-104.96 94.32 10/27/2024 06:25:51 -72.76,-104.89 94.33 2.35 12
3 10/27/2024 07:16:23 72.64, 62.61 85.57 10/27/2024 07:15:12 72.64, 62.57 85.58 1.41 71
4 10/29/2024 16:47:38 73.60, -82.23 87.38 10/29/2024 16:48:43 73.49, -79.27 87.19 94.04 65
5 10/29/2024 17:38:04 -72.72, 87.02 93.54 10/29/2024 17:38:19 -72.74, 86.92 93.53 3.51 15
6 10/29/2024 18:28:49 72.65,-105.53 86.40 10/29/2024 18:27:39 72.68,-105.52 86.43 3.20 70
7 11/01/2024 04:00:04 73.63, 109.60 88.20 11/01/2024 04:01:09 73.53, 112.65 88.02 96.57 65
8 11/01/2024 04:50:30 -72.75, -81.14 92.72 11/01/2024 04:50:45 -72.77, -81.17 92.70 2.66 15
9 11/01/2024 05:41:15 72.68, 86.31 87.22 11/01/2024 05:40:06 72.66, 86.30 87.21 2.00 69
10 11/03/2024 15:12:29 73.62, -58.48 88.97 11/03/2024 15:13:34 73.56, -55.43 88.83 96.17 65
11 11/03/2024 16:02:56 -72.79, 110.67 91.91 11/03/2024 16:03:10 -72.80, 110.74 91.90 2.67 14
12 11/03/2024 16:53:40 72.67, -81.78 87.98 11/03/2024 16:52:31 72.69, -81.79 88.01 2.61 69
13 11/06/2024 02:24:54 73.62, 133.40 89.72 11/06/2024 02:25:59 73.53, 136.38 89.55 94.09 65
14 11/06/2024 03:15:21 -72.79, -57.44 91.16 11/06/2024 03:15:35 -72.77, -57.46 91.18 2.09 14
15 11/06/2024 04:06:05 72.67, 110.11 88.74 11/06/2024 04:04:56 72.67, 110.01 88.74 3.15 69
16 11/08/2024 13:37:18 73.59, -34.63 90.41 11/08/2024 13:38:24 73.45, -31.92 90.20 86.65 66
17 11/08/2024 14:27:46 -72.80, 134.42 90.42 11/08/2024 14:27:58 -72.79, 134.44 90.44 1.61 12



Historial Predications of SNOs between NOAA-20 and TERRA
